Cloud_Cover
100 100 100 100 100 100 47 14 21 12 4 0 1 0 0 0 0 0 0 0 0 0 0 4 3 0 0 28 31 81 21 9 5 1 0 0 4 5 11 100 89 4 3 0 0
100 100 100 100 100 100 53 12 9 13 1 0 0 0 0 3 0 0 0 0 0 0 0 0 5 4 0 13 20 5 8 40 0 0 0 0 0 2 0 2 11 5 2 0 0
100 100 100 100 99 91 19 2 0 0 0 0 0 0 0 15 0 0 0 0 0 0 0 0 2 5 5 54 13 5 10 4 0 0 0 0 0 0 4 0 5 4 3 0 0
100 100 100 69 1 0 0 0 0 0 0 0 0 0 0 0 0 0 0 0 0 0 0 0 0 0 2 97 5 9 53 2 0 0 0 0 0 4 2 2 0 5 0 0 0
100 100 100 14 13 11 2 0 11 9 13 17 10 0 0 0 0 0 0 0 0 0 0 0 0 0 0 100 5 5 77 2 0 0 0 0 0 0 0 0 0 0 0 0 0
100 100 9 14 23 23 13 14 3 17 5 1 4 16 0 0 0 0 0 0 0 0 0 0 0 0 1 90 5 16 7 0 0 0 0 0 0 0 0 0 0 0 0 0 0
12 65 30 99 100 34 14 17 13 3 0 0 30 0 0 0 0 0 0 0 0 0 0 0 0 0 11 95 99 97 30 0 0 0 0 0 0 0 0 0 0 0 0 0 0
100 100 100 98 100 31 20 20 8 0 0 6 7 0 0 0 0 0 0 0 0 0 0 0 0 0 0 78 67 100 87 3 0 0 0 0 15 0 0 0 0 0 0 0 0
100 100 100 100 100 100 100 11 0 0 24 1 3 0 0 0 0 0 0 0 0 0 0 0 0 0 0 52 43 96 79 61 3 0 0 1 7 0 0 0 0 0 0 0 0
100 100 100 100 100 100 96 0 0 0 17 0 0 0 0 0 0 0 0 0 0 0 0 0 0 0 1 86 100 100 97 17 30 0 0 0 0 0 0 0 0 0 0 0 0
100 100 100 100 100 100 28 0 0 0 0 0 0 0 0 0 0 0 0 0 0 0 0 0 0 0 12 100 100 97 100 92 2 0 0 3 0 0 0 0 0 0 0 0 0
100 100 100 100 56 0 4 0 0 0 0 0 0 0 0 0 0 0 0 0 0 0 0 0 0 28 100 100 100 100 100 95 10 0 4 5 2 0 0 0 0 0 0 0 0
100 100 100 90 0 5 0 0 0 0 0 0 0 0 0 0 0 0 0 0 0 0 0 0 1 68 100 100 100 72 65 91 56 0 5 4 5 0 0 0 0 0 0 0 0
100 100 100 63 2 0 0 0 0 0 0 0 0 0 0 0 0 0 0 0 0 0 2 0 5 100 100 100 100 65 24 100 34 0 5 2 5 5 1 0 0 0 0 0 0
100 100 100 96 10 0 0 0 0 0 0 0 0 0 0 0 0 0 0 0 0 0 2 0 0 100 100 100 100 100 100 94 74 56 88 7 23 66 5 5 5 0 0 0 0
100 100 100 1 0 0 0 0 0 0 0 0 0 0 0 0 0 0 0 0 0 0 0 4 0 45 98 45 100 96 84 98 50 97 48 54 35 67 2 9 16 1 4 4 4
100 100 100 33 0 0 0 0 0 0 0 0 0 0 0 0 0 0 0 0 0 0 2 4 1 97 98 85 100 34 100 99 96 96 86 48 100 47 26 6 11 5 1 5 5
27 95 66 71 0 0 0 0 0 5 0 0 0 0 0 0 0 0 0 0 0 0 5 5 3 100 100 100 100 98 100 100 100 100 100 100 100 100 78 97 35 29 54 37 100
22 0 0 0 0 0 0 0 0 0 0 0 0 0 0 0 0 0 0 0 0 0 5 5 5 100 100 100 100 100 100 100 100 100 100 99 97 100 98 57 6 75 97 60 100
0 0 0 0 0 0 0 0 0 0 0 5 0 0 0 0 0 0 0 0 0 0 5 52 33 54 100 100 100 100 100 100 100 100 100 97 100 57 54 6 97 100 100 100 100
0 0 0 0 0 0 0 0 0 0 0 0 0 0 0 0 0 0 2 0 0 0 2 7 6 52 100 99 100 100 100 100 98 93 100 100 100 54 90 55 68 100 100 100 99
0 0 0 0 0 0 0 0 0 0 2 5 3 0 0 0 0 0 0 0 0 0 0 5 85 90 1 100 100 100 100 100 100 100 100 100 100 92 100 100 99 98 100 100 100
0 0 0 3 0 0 0 1 1 2 5 5 3 0 0 0 0 0 0 3 0 0 0 7 18 100 100 92 100 100 100 100 100 100 100 100 100 100 95 100 89 98 100 64 68
0 0 0 4 4 0 4 5 6 12 78 39 88 4 1 2 0 0 0 4 2 5 2 7 100 37 89 100 100 100 100 100 100 90 100 100 100 99 100 99 23 24 100 100 93
0 2 0 0 0 0 2 7 94 100 11 100 100 96 2 3 6 2 0 1 24 5 0 0 66 91 100 100 100 100 100 100 100 100 96 100 100 100 86 87 100 100 99 77 100
5 5 5 5 1 0 4 100 100 100 55 100 100 88 5 5 69 5 0 0 16 57 6 2 4 46 79 100 87 100 100 100 100 100 100 100 100 100 100 100 100 100 100 100 100
9 2 65 5 5 0 0 93 100 100 76 99 100 100 100 19 3 5 3 0 33 97 100 5 5 5 5 34 64 55 100 100 100 100 100 100 100 100 100 100 100 100 100 100 100